sat.trackr.live / text

‹ back to catalog

STARLINK-11603 [DTC]

NORAD 63671 · 2025-085H

PAYLOAD ACTIVE UNKNOWN

§ Identity

Operator
Country
US
Launch date
2025-04-28
Launch site
AFETR
Launch vehicle
Mass (kg)
RCS (m²)

Purposes: comms

External: N2YO · Heavens-Above · Gunter

§ Orbital elements

Epoch: 2026-05-25T03:14:11.522112Z

Period
91.67 min
Inclination
43.0009°
Eccentricity
0.0001141
Mean motion
15.70899918 rev/d
Perigee alt
355.6 km
Apogee alt
357.1 km
Semi-major
6,734.5 km
B*
1.1068e-3
RAAN
177.7227°
Arg perigee
238.9106°
Mean anomaly
121.1650°
Rev number
6,226

§ Raw data

STARLINK-11603 [DTC]1 63671U 25085H   26145.13485558  .00144428  00000+0  11068-2 0  99902 63671  43.0009 177.7227 0001141 238.9106 121.1650 15.70899918 62269

JSON: /api/v1/satellites/63671 · /tle

For live sub-satellite position, see the globe view (requires WebGL).

§ Visibility from observer

Set your observer location to see the next 7 days of passes ≥ 10°. The values pass through the URL so the page stays shareable.

No JS? Fill the form by hand. The geolocation button needs JavaScript.